EW4824 Weather Reports


time (UTC)temp
C
wind
direction
speed
KPH
gust
KPH
rain 1hr
cm
rain 24hr
cm
rain mn
cm
humidity
%
barometer
mb
20260510072156 17 84 0.0 0.0 0.00 0.03 0.00 45 1009.1
20260510072016 17 84 0.0 0.0 0.00 0.03 0.00 46 1009.2
20260510071157 17 84 0.0 0.0 0.00 0.03 0.00 48 1009.3
20260510070659 17 84 0.0 0.0 0.00 0.03 0.00 50 1009.4
20260510070155 17 84 0.0 0.0 0.00 0.03 0.00 53 1009.3
20260510065650 17 84 0.0 0.0 0.00 0.03 0.00 53 1009.3
20260510065149 17 84 0.0 0.0 0.00 0.03 0.00 55 1009.3
20260510064647 17 84 0.0 0.0 0.00 0.03 0.00 55 1009.4
20260510064147 17 84 0.0 0.0 0.00 0.03 0.00 56 1009.4
20260510063648 18 84 0.0 0.0 0.00 0.03 0.00 56 1009.4
20260510063146 18 84 0.0 0.0 0.00 0.03 0.00 56 1009.4
20260510062644 18 84 0.0 0.0 0.00 0.03 0.00 57 1009.5
20260510062454 18 84 0.0 0.0 0.00 0.03 0.00 58 1009.5
20260510061950 18 84 0.0 0.0 0.00 0.03 0.00 58 1009.5
20260510061136 18 84 0.0 0.0 0.00 0.03 0.00 57 1009.5
20260510060941 18 84 0.0 0.0 0.00 0.03 0.00 57 1009.5
20260510060139 18 84 0.0 0.0 0.00 0.03 0.00 56 1009.5
20260510055633 18 84 0.0 0.0 0.00 0.03 0.00 56 1009.6
20260510055130 18 84 0.0 0.0 0.00 0.03 0.00 58 1009.6
20260510054943 18 84 0.0 0.0 0.00 0.03 0.00 64 1009.5
20260510054441 18 84 0.0 0.0 0.00 0.03 0.00 69 1009.5
20260510053630 19 84 0.0 0.0 0.00 0.03 0.00 70 1009.5
20260510053441 19 84 0.0 0.0 0.00 0.03 0.00 70 1009.5
20260510052629 19 84 0.0 0.0 0.00 0.03 0.00 71 1009.5
20260510052130 20 84 0.0 0.0 0.00 0.03 0.00 71 1009.5
20260510051630 20 84 0.0 0.0 0.00 0.03 0.00 71 1009.5
20260510051129 20 84 0.0 0.0 0.00 0.03 0.00 70 1009.5
20260510050634 20 84 0.0 0.0 0.00 0.03 0.00 70 1009.4
20260510050138 20 84 0.0 0.0 0.00 0.03 0.00 71 1009.5
20260510045628 21 84 0.0 0.0 0.00 0.03 0.03 71 1009.5
20260510045121 21 84 0.0 0.0 0.00 0.03 0.03 72 1009.5
20260510044624 21 84 0.0 0.0 0.00 0.03 0.03 72 1009.5
20260510044300 21 84 0.0 0.0 0.00 0.03 0.03 72 1009.5
20260510043800 21 84 0.0 0.0 0.00 0.03 0.03 71 1009.5
20260510043739 21 84 0.0 1.6 0.00 0.03 0.03 70 1009.6
20260510043356 21 84 0.0 1.6 0.00 0.03 0.03 71 1009.6
20260510042611 21 84 0.0 0.0 0.00 0.03 0.03 70 1009.5
20260510041758 21 84 0.0 0.0 0.00 0.03 0.03 70 1009.6
20260510041254 21 84 0.0 0.0 0.00 0.03 0.03 70 1009.6
20260510041108 21 84 0.0 0.0 0.00 0.03 0.03 70 1009.6
20260510040254 21 84 0.0 0.0 0.00 0.03 0.03 69 1009.4
20260510035755 21 86 0.0 0.0 0.00 0.03 0.03 68 1009.4
20260510035255 21 82 0.0 0.0 0.00 0.03 0.03 67 1009.3
20260510034753 21 94 0.0 1.6 0.00 0.03 0.03 65 1009.3
20260510034252 21 94 0.0 4.8 0.00 0.03 0.03 64 1009.3
20260510033752 20 73 0.0 4.8 0.00 0.03 0.03 65 1009.3
20260510033251 20 207 0.0 0.0 0.00 0.03 0.03 67 1009.2
20260510032751 20 207 0.0 0.0 0.00 0.03 0.03 68 1009.2
20260510032252 20 207 0.0 0.0 0.00 0.03 0.03 69 1009.2
20260510031753 20 207 0.0 0.0 0.00 0.03 0.03 69 1009.2
20260510031253 21 207 0.0 0.0 0.00 0.03 0.03 70 1009.3
20260510030752 21 207 0.0 0.0 0.00 0.03 0.03 70 1009.2
20260510030253 21 207 0.0 0.0 0.00 0.03 0.03 70 1009.1
20260510025753 21 207 0.0 0.0 0.00 0.03 0.03 71 1009.0
20260510025252 21 207 0.0 0.0 0.00 0.03 0.03 71 1009.0
20260510024753 21 207 0.0 0.0 0.00 0.03 0.03 71 1008.9
20260510024254 21 207 0.0 0.0 0.00 0.03 0.03 71 1008.8
20260510023751 21 207 0.0 0.0 0.00 0.03 0.03 71 1008.6
20260510023253 21 207 0.0 0.0 0.00 0.03 0.03 71 1008.5
20260510022751 22 207 0.0 0.0 0.00 0.03 0.03 71 1008.5
20260510022253 22 207 0.0 0.0 0.00 0.03 0.03 71 1008.4
20260510022100 22 207 0.0 0.0 0.00 0.03 0.03 71 1008.3
20260510021252 22 207 0.0 0.0 0.00 0.03 0.03 70 1008.3
20260510020752 23 207 0.0 0.0 0.00 0.03 0.03 70 1008.1
20260510020250 23 207 0.0 0.0 0.00 0.03 0.03 69 1008.1
20260510015751 24 207 0.0 0.0 0.00 0.03 0.03 68 1008.0
20260510015249 24 207 0.0 0.0 0.00 0.03 0.03 67 1008.0
20260510014746 25 207 0.0 0.0 0.00 0.03 0.03 66 1007.8
20260510014559 26 207 0.0 0.0 0.00 0.03 0.03 65 1007.6
20260510014110 26 207 0.0 0.0 0.00 0.03 0.03 63 1007.6
20260510013247 27 207 0.0 0.0 0.00 0.03 0.03 62 1007.6
20260510012741 28 207 0.0 0.0 0.00 0.03 0.03 60 1007.6
20260510012239 29 207 0.0 0.0 0.00 0.03 0.03 58 1007.6
20260510011738 30 207 0.0 0.0 0.00 0.03 0.03 56 1007.6
20260510011553 30 207 0.0 0.0 0.00 0.03 0.03 54 1007.6
20260510010736 31 207 0.0 0.0 0.00 0.03 0.03 51 1007.5
20260510010233 31 207 0.0 0.0 0.00 0.03 0.03 52 1007.5
20260510010044 32 207 0.0 0.0 0.00 0.03 0.03 50 1007.4
20260510005231 32 207 0.0 0.0 0.00 0.03 0.03 47 1007.4
20260510005214 32 207 0.0 0.0 0.00 0.03 0.03 43 1007.5
20260510004831 32 207 0.0 0.0 0.00 0.03 0.03 47 1007.4
20260510003741 32 207 0.0 0.0 0.00 0.03 0.03 41 1007.4
20260510003037 33 207 0.0 0.0 0.00 0.03 0.03 41 1007.4
20260510002533 33 207 0.0 0.0 0.00 0.03 0.03 42 1007.4
20260510002035 33 207 0.0 0.0 0.00 0.03 0.03 40 1007.4
20260510001532 33 207 0.0 0.0 0.00 0.03 0.03 41 1007.3
20260510001031 33 207 0.0 0.0 0.00 0.03 0.03 42 1007.3
20260510000530 33 207 0.0 0.0 0.00 0.03 0.03 41 1007.4
20260510000030 32 207 0.0 0.0 0.00 0.03 0.03 40 1007.4
20260509235530 32 207 0.0 0.0 0.00 0.03 0.03 42 1007.3
20260509235031 32 207 0.0 0.0 0.00 0.03 0.03 40 1007.3
20260509234843 32 207 0.0 0.0 0.00 0.03 0.03 43 1007.3
20260509234350 32 207 0.0 0.0 0.00 0.03 0.03 40 1007.3
20260509233529 32 206 0.0 0.0 0.00 0.03 0.03 41 1007.4
20260509233027 32 213 0.0 0.0 0.00 0.03 0.03 43 1007.4
20260509232523 32 213 0.0 0.0 0.00 0.03 0.03 42 1007.4
20260509232328 32 213 0.0 0.0 0.00 0.03 0.03 43 1007.3
20260509231523 32 213 0.0 8.0 0.00 0.03 0.03 45 1007.3
20260509231021 32 168 0.0 8.0 0.00 0.03 0.03 46 1007.3
20260509230519 32 236 0.0 0.0 0.00 0.03 0.03 42 1007.3
20260509230334 32 236 0.0 0.0 0.00 0.03 0.03 42 1007.3
20260509225517 32 236 0.0 0.0 0.00 0.03 0.03 43 1007.4
20260509225017 32 236 0.0 0.0 0.00 0.03 0.03 45 1007.4
20260509224514 32 236 0.0 1.6 0.00 0.03 0.03 43 1007.5
20260509224322 32 265 0.0 1.6 0.00 0.03 0.03 41 1007.5
20260509223514 32 230 0.0 0.0 0.00 0.03 0.03 41 1007.4
20260509223013 32 226 0.0 0.0 0.00 0.03 0.03 39 1007.4
20260509222512 32 216 0.0 0.0 0.00 0.03 0.03 43 1007.4
20260509222011 32 244 0.0 1.6 0.00 0.03 0.03 45 1007.3
20260509221519 32 273 0.0 1.6 0.00 0.03 0.03 44 1007.4
20260509221328 32 288 0.0 0.0 0.00 0.03 0.03 44 1007.3
20260509220509 32 230 0.0 0.0 0.00 0.03 0.03 44 1007.3
20260509220006 32 236 0.0 1.6 0.00 0.03 0.03 41 1007.4
20260509215505 32 261 0.0 3.2 0.00 0.03 0.03 44 1007.4
20260509215005 32 259 0.0 3.2 0.00 0.03 0.03 42 1007.4
20260509214504 32 277 0.0 1.6 0.00 0.03 0.03 46 1007.5
20260509214003 32 239 0.0 0.0 0.00 0.03 0.03 44 1007.5
20260509213504 32 235 0.0 0.0 0.00 0.03 0.03 44 1007.6
20260509213003 32 218 0.0 0.0 0.00 0.03 0.03 47 1007.6
20260509212459 32 238 0.0 1.6 0.00 0.03 0.03 48 1007.6
20260509211953 32 277 0.0 1.6 0.00 0.03 0.03 48 1007.6
20260509211447 32 240 0.0 1.6 0.00 0.03 0.03 48 1007.7
20260509210949 32 229 0.0 1.6 0.00 0.03 0.03 45 1007.8
20260509210448 32 253 0.0 1.6 0.00 0.03 0.03 49 1008.0
20260509205948 32 222 0.0 3.2 0.00 0.03 0.03 44 1008.0
20260509205750 32 315 0.0 3.2 0.00 0.03 0.03 44 1008.2
20260509204946 32 245 0.0 1.6 0.00 0.03 0.03 45 1008.3
20260509204445 31 234 0.0 1.6 0.00 0.03 0.03 44 1008.5
20260509203945 31 279 1.6 9.7 0.00 0.03 0.03 47 1008.5
20260509203445 31 221 1.6 9.7 0.00 0.03 0.03 52 1008.8
20260509202942 31 253 0.0 1.6 0.00 0.03 0.03 47 1008.9
20260509202749 31 261 0.0 6.4 0.00 0.03 0.03 49 1009.0
20260509201938 31 252 0.0 6.4 0.00 0.03 0.03 52 1009.1
20260509201438 31 234 0.0 1.6 0.00 0.03 0.03 49 1009.1
20260509200937 31 261 0.0 1.6 0.00 0.03 0.03 50 1009.1
20260509200439 31 223 1.6 14.5 0.00 0.03 0.03 51 1009.3
20260509195931 31 234 1.6 14.5 0.00 0.03 0.03 50 1009.2
20260509195430 31 281 0.0 1.6 0.00 0.03 0.03 49 1009.3
20260509194932 31 321 0.0 1.6 0.00 0.03 0.03 52 1009.3
20260509194432 31 254 0.0 0.0 0.00 0.03 0.03 51 1009.5
20260509193931 31 218 0.0 1.6 0.00 0.03 0.03 54 1009.4
20260509193741 31 268 0.0 1.6 0.00 0.03 0.03 53 1009.5
20260509192930 31 223 0.0 1.6 0.00 0.03 0.03 53 1009.6
20260509192431 31 218 0.0 1.6 0.00 0.03 0.03 53 1009.6
20260509191930 31 251 0.0 1.6 0.00 0.03 0.03 53 1009.6
20260509191429 31 210 0.0 0.0 0.00 0.03 0.03 55 1009.5
20260509190929 30 234 0.0 0.0 0.00 0.03 0.03 56 1009.6
20260509190428 30 148 0.0 0.0 0.00 0.03 0.03 58 1009.7
20260509185928 30 215 0.0 0.0 0.00 0.03 0.03 56 1009.7
20260509185429 30 232 0.0 1.6 0.00 0.03 0.03 53 1009.7
20260509184928 30 225 1.6 12.9 0.00 0.03 0.03 55 1009.7
20260509184733 30 262 1.6 16.1 0.00 0.03 0.03 55 1009.8
20260509183925 30 255 0.0 16.1 0.00 0.03 0.03 55 1009.9
20260509183426 30 255 0.0 1.6 0.00 0.03 0.03 54 1009.9
20260509183232 30 167 0.0 0.0 0.00 0.03 0.03 59 1010.0
20260509182732 30 174 0.0 0.0 0.00 0.03 0.03 59 1010.0
20260509182230 29 231 0.0 1.6 0.00 0.03 0.03 58 1010.0
20260509181426 29 242 0.0 1.6 0.00 0.03 0.03 58 1010.2
20260509180924 29 244 0.0 0.0 0.00 0.03 0.03 59 1010.2
20260509180425 29 245 0.0 0.0 0.00 0.03 0.03 59 1010.3
20260509175926 29 234 0.0 0.0 0.00 0.03 0.03 62 1010.3
20260509175424 29 189 0.0 1.6 0.00 0.03 0.03 61 1010.5
20260509174926 28 191 0.0 1.6 0.00 0.03 0.03 64 1010.6
20260509174426 28 232 0.0 1.6 0.00 0.03 0.03 61 1010.6
20260509173926 28 226 0.0 3.2 0.00 0.03 0.03 63 1010.8
20260509173425 28 233 0.0 3.2 0.00 0.03 0.03 62 1010.8
20260509172924 28 271 0.0 1.6 0.00 0.03 0.03 66 1010.8
20260509172425 28 239 0.0 1.6 0.00 0.03 0.03 64 1010.9
20260509171925 28 224 0.0 0.0 0.00 0.03 0.03 64 1010.9
20260509171430 28 226 0.0 0.0 0.00 0.03 0.03 66 1011.0
20260509170929 28 229 0.0 0.0 0.00 0.03 0.03 68 1011.0
20260509170428 27 213 0.0 1.6 0.00 0.03 0.03 67 1011.1
20260509165926 27 275 0.0 1.6 0.00 0.03 0.03 67 1011.1
20260509165421 27 243 0.0 0.0 0.00 0.03 0.03 67 1011.0
20260509165027 27 231 0.0 1.6 0.00 0.03 0.03 69 1011.1
20260509164525 26 218 0.0 1.6 0.00 0.03 0.03 69 1011.1
20260509164024 26 263 0.0 1.6 0.00 0.03 0.03 69 1011.1
20260509163536 26 227 0.0 1.6 0.00 0.03 0.03 69 1011.2
20260509163029 26 229 0.0 4.8 0.00 0.03 0.03 69 1011.2
20260509162522 25 226 1.6 6.4 0.00 0.03 0.03 67 1011.1
20260509162020 25 228 1.6 0.0 0.00 0.03 0.03 61 1011.2
20260509161319 24 234 0.0 8.0 0.00 0.03 0.03 47 1011.1
20260509160818 23 162 0.0 0.0 0.00 0.03 0.03 33 1011.1
20260509155958 23 163 0.0 0.0 0.00 0.03 0.03 21 1011.1
20260509155502 22 219 0.0 0.0 0.00 0.03 0.03 18 1011.2
20260509154950 22 229 0.0 0.0 0.00 0.03 0.03 16 1011.2
20260509154448 21 221 0.0 0.0 0.00 0.03 0.03 15 1011.2
20260509153946 21 221 0.0 0.0 0.00 0.03 0.03 16 1011.1
20260509152946 21 227 0.0 1.6 0.00 0.03 0.03 20 1011.0
20260509152447 21 175 0.0 1.6 0.00 0.03 0.03 22 1010.9
20260509151946 20 223 0.0 1.6 0.00 0.03 0.03 22 1011.0
20260509151747 20 257 0.0 1.6 0.00 0.03 0.03 22 1011.0
20260509150943 20 231 0.0 1.6 0.00 0.03 0.03 22 1010.9
20260509150746 19 238 0.0 1.6 0.00 0.03 0.03 22 1010.9
20260509150253 19 258 0.0 1.6 0.00 0.03 0.03 23 1010.8
20260509145442 19 263 0.0 0.0 0.00 0.03 0.03 23 1010.6
20260509145024 19 196 0.0 1.6 0.00 0.03 0.03 23 1010.5
20260509144830 19 239 0.0 1.6 0.00 0.03 0.03 24 1010.5
20260509144026 19 229 0.0 0.0 0.00 0.03 0.03 24 1010.4
20260509143521 19 238 0.0 0.0 0.00 0.03 0.03 24 1010.3
20260509143027 19 226 0.0 0.0 0.00 0.03 0.03 24 1010.3
20260509142519 18 226 0.0 0.0 0.00 0.03 0.03 24 1010.2
20260509142012 18 234 0.0 0.0 0.00 0.03 0.03 24 1010.3
20260509141510 18 235 0.0 0.0 0.00 0.03 0.03 24 1010.6
20260509141202 18 235 0.0 0.0 0.00 0.03 0.03 25 1010.5
20260509141008 18 234 0.0 0.0 0.00 0.03 0.03 25 1010.5
20260509140159 18 241 0.0 0.0 0.00 0.03 0.03 25 1010.3
20260509135959 18 265 0.0 0.0 0.00 0.03 0.03 25 1010.3
20260509135154 18 234 0.0 0.0 0.00 0.03 0.03 25 1010.4
20260509135005 18 225 0.0 0.0 0.00 0.03 0.03 26 1010.3
20260509134159 18 225 0.0 0.0 0.00 0.03 0.03 26 1010.3
20260509133658 18 240 0.0 0.0 0.00 0.03 0.03 26 1010.4
20260509133154 18 225 0.0 0.0 0.00 0.03 0.03 26 1010.4
20260509132651 18 224 0.0 0.0 0.00 0.03 0.03 26 1010.2
20260509132146 18 230 0.0 0.0 0.00 0.03 0.03 26 1010.1
20260509131640 18 225 0.0 0.0 0.00 0.03 0.03 26 1010.2
20260509131142 18 225 0.0 3.2 0.00 0.03 0.03 26 1010.2
20260509130641 17 175 0.0 3.2 0.00 0.03 0.03 26 1010.2
20260509130138 17 163 0.0 0.0 0.00 0.03 0.03 26 1010.2
20260509125637 17 153 0.0 0.0 0.00 0.03 0.03 27 1010.2
20260509125136 17 222 0.0 0.0 0.00 0.03 0.03 27 1010.2
20260509124633 17 223 0.0 0.0 0.00 0.03 0.03 27 1010.1
20260509124130 17 189 0.0 0.0 0.00 0.03 0.03 27 1010.1
20260509123631 17 166 0.0 0.0 0.00 0.03 0.03 27 1010.0
20260509123439 17 166 0.0 0.0 0.00 0.03 0.03 26 1009.9
20260509122630 16 150 0.0 0.0 0.00 0.03 0.03 26 1010.0
20260509122131 16 150 0.0 0.0 0.00 0.03 0.03 26 1010.0
20260509121630 17 150 0.0 0.0 0.00 0.03 0.03 26 1010.0
20260509121140 17 150 0.0 0.0 0.00 0.03 0.03 26 1009.9
20260509120639 17 150 0.0 0.0 0.00 0.03 0.03 26 1010.0
20260509120443 17 150 0.0 0.0 0.00 0.03 0.03 26 1010.1
20260509115636 17 150 0.0 0.0 0.00 0.03 0.03 26 1010.0
20260509115201 17 150 0.0 0.0 0.00 0.03 0.03 26 1010.1
20260509114701 17 150 0.0 0.0 0.00 0.03 0.03 26 1010.2
20260509114201 17 150 0.0 0.0 0.00 0.03 0.03 27 1010.2
20260509113701 17 151 0.0 0.0 0.00 0.03 0.03 27 1010.5
20260509113205 17 151 0.0 0.0 0.00 0.03 0.03 27 1010.4
20260509112710 17 151 0.0 0.0 0.00 0.03 0.03 27 1010.5
20260509112204 17 80 0.0 0.0 0.00 0.03 0.03 27 1011.1
20260509111657 17 78 0.0 0.0 0.00 0.03 0.03 27 1011.2
20260509111151 17 75 0.0 0.0 0.00 0.03 0.03 27 1011.3
20260509110429 17 75 0.0 1.6 0.00 0.03 0.03 28 1011.4
20260509105929 17 75 0.0 1.6 0.00 0.03 0.03 28 1011.3
20260509105429 17 79 0.0 4.8 0.00 0.03 0.03 28 1011.3
20260509104931 17 71 0.0 4.8 0.00 0.03 0.03 28 1011.3
20260509104429 17 71 0.0 1.6 0.00 0.03 0.03 28 1011.2
20260509103929 17 69 0.0 1.6 0.00 0.03 0.03 28 1011.1
20260509103430 17 34 0.0 4.8 0.00 0.03 0.03 27 1011.1
20260509102929 17 79 0.0 4.8 0.00 0.03 0.03 27 1011.0
20260509102430 17 77 0.0 0.0 0.00 0.03 0.03 27 1010.8
20260509101929 17 72 0.0 0.0 0.00 0.03 0.03 28 1011.0
20260509101428 17 72 0.0 0.0 0.00 0.03 0.03 28 1010.9
20260509100929 17 72 0.0 0.0 0.00 0.03 0.03 28 1010.9
20260509100921 17 48 0.0 1.6 0.00 0.03 0.03 28 1011.0
20260509100535 17 72 0.0 0.0 0.00 0.03 0.03 28 1011.0
20260509095427 17 30 0.0 1.6 0.00 0.03 0.03 28 1011.1
20260509094927 17 34 0.0 1.6 0.00 0.03 0.03 28 1011.1
20260509094429 17 31 0.0 1.6 0.00 0.03 0.03 28 1010.8
20260509093928 17 34 0.0 3.2 0.00 0.03 0.03 29 1010.8
20260509093742 17 17 0.0 3.2 0.00 0.03 0.03 29 1010.6
20260509092927 17 355 0.0 0.0 0.03 0.03 0.03 29 1010.8
20260509092742 17 16 1.6 14.5 0.03 0.03 0.03 30 1010.6
20260509092246 16 324 1.6 14.5 0.03 0.03 0.03 30 1010.6
20260509091746 16 5 0.0 14.5 0.03 0.03 0.03 30 1010.6
20260509091239 16 329 0.0 1.6 0.03 0.03 0.03 30 1009.6
20260509090423 15 121 0.0 0.0 0.03 0.03 0.03 31 1009.0
20260509085922 15 121 0.0 0.0 0.03 0.00 0.03 31 1008.9
20260509085423 15 99 0.0 0.0 0.03 0.00 0.03 31 1008.9
20260509084922 15 98 0.0 0.0 0.03 0.00 0.03 31 1009.1
20260509084421 15 98 0.0 0.0 0.03 0.00 0.03 31 1009.2
20260509083923 15 98 0.0 0.0 0.03 0.00 0.03 31 1009.3
20260509083727 15 98 0.0 0.0 0.03 0.00 0.03 31 1009.4
20260509082922 15 98 0.0 0.0 0.00 0.00 0.00 31 1009.3
20260509082426 15 98 0.0 1.6 0.00 0.00 0.00 31 1009.5
20260509082035 15 98 0.0 3.2 0.00 0.00 0.00 32 1009.7
20260509082007 15 98 0.0 1.6 0.00 0.00 0.00 31 1009.6
20260509081627 15 98 0.0 0.0 0.00 0.00 0.00 32 1009.8
20260509081020 15 98 0.0 0.0 0.00 0.00 0.00 32 1009.8
20260509080230 15 98 0.0 4.8 0.00 0.00 0.00 33 1009.7
20260509075733 15 98 0.0 4.8 0.00 0.00 0.00 34 1009.7
20260509074914 15 98 0.0 0.0 0.00 0.00 0.00 34 1009.7
20260509074411 15 98 0.0 0.0 0.00 0.00 0.00 34 1009.7
20260509073907 15 98 0.0 0.0 0.00 0.00 0.00 34 1009.9
20260509073708 15 98 0.0 0.0 0.00 0.00 0.00 35 1009.9
20260509072905 15 98 0.0 0.0 0.00 0.00 0.00 35 1009.9